TAP1483 GOBD-GVNP

Flight info

Callsign TAP1483
Flight time 1h 13m
Altitude 38000
Route MOGSA DCT SONVA DCT AREPU AREPU1H
Aircraft A21N/M-SDE2E3FGHIRWXY/LB1

Departure

Time 2026-04-23 14:46
Airport Blaise Diagne International Airport (GOBD)

Arrival

Time 2026-04-23 15:59
Airport Nelson Mandela International Airport (GVNP)
Time Latitude Longitude Altitude Speed Heading
2026-04-23 13:45 14.67433 -17.06881 299 ft 0 kts 180°
2026-04-23 14:31 14.67441 -17.06881 299 ft 2 kts 180°
2026-04-23 14:31 14.67456 -17.06881 299 ft 2 kts 180°
2026-04-23 14:31 14.67471 -17.06881 299 ft 2 kts 180°
2026-04-23 14:31 14.67486 -17.06881 299 ft 2 kts 180°
2026-04-23 14:32 14.67501 -17.06879 299 ft 2 kts 199°
2026-04-23 14:32 14.67514 -17.06872 299 ft 2 kts 215°
2026-04-23 14:32 14.67525 -17.06862 299 ft 2 kts 233°
2026-04-23 14:32 14.67533 -17.06848 299 ft 2 kts 251°
2026-04-23 14:33 14.67535 -17.06835 299 ft 1 kts 267°
2026-04-23 14:33 14.67535 -17.06828 299 ft 1 kts 270°
2026-04-23 14:33 14.67535 -17.06827 299 ft 0 kts 270°
2026-04-23 14:41 14.67536 -17.06842 299 ft 7 kts 270°
2026-04-23 14:41 14.67535 -17.06934 299 ft 17 kts 269°
2026-04-23 14:41 14.67534 -17.07033 299 ft 13 kts 269°
2026-04-23 14:42 14.67491 -17.07094 299 ft 11 kts 189°
2026-04-23 14:42 14.67389 -17.07096 299 ft 17 kts 179°
2026-04-23 14:42 14.67246 -17.07094 299 ft 23 kts 179°
2026-04-23 14:42 14.67068 -17.07092 299 ft 27 kts 179°
2026-04-23 14:43 14.66874 -17.07090 299 ft 25 kts 179°
2026-04-23 14:43 14.66688 -17.07089 299 ft 27 kts 179°
2026-04-23 14:43 14.66492 -17.07087 299 ft 28 kts 179°
2026-04-23 14:43 14.66291 -17.07084 299 ft 29 kts 179°
2026-04-23 14:44 14.66086 -17.07083 299 ft 29 kts 180°
2026-04-23 14:44 14.65877 -17.07083 299 ft 30 kts 180°
2026-04-23 14:44 14.65680 -17.07081 299 ft 18 kts 179°
2026-04-23 14:44 14.65620 -17.07143 299 ft 8 kts 268°
2026-04-23 14:45 14.65620 -17.07151 299 ft 2 kts 269°
2026-04-23 14:45 14.65619 -17.07195 299 ft 10 kts 269°
2026-04-23 14:45 14.65669 -17.07269 299 ft 15 kts 357°
2026-04-23 14:45 14.65691 -17.07269 299 ft 5 kts
2026-04-23 14:46 14.66002 -17.07270 299 ft 85 kts
2026-04-23 14:46 14.66850 -17.07280 299 ft 155 kts
2026-04-23 14:46 14.68022 -17.07286 864 ft 173 kts
2026-04-23 14:46 14.69150 -17.07304 1856 ft 166 kts
2026-04-23 14:47 14.70294 -17.07560 2551 ft 183 kts 333°
2026-04-23 14:47 14.71188 -17.08576 3143 ft 209 kts 298°
2026-04-23 14:47 14.71351 -17.10131 3721 ft 236 kts 259°
2026-04-23 14:47 14.70479 -17.11655 4316 ft 260 kts 225°
2026-04-23 14:48 14.69198 -17.13013 5060 ft 274 kts 234°
2026-04-23 14:48 14.68504 -17.14801 5882 ft 273 kts 266°
2026-04-23 14:48 14.68553 -17.16802 6435 ft 285 kts 277°
2026-04-23 14:48 14.68774 -17.18851 7093 ft 293 kts 277°
2026-04-23 14:49 14.68964 -17.20933 7887 ft 296 kts 275°
2026-04-23 14:49 14.69094 -17.23058 8671 ft 299 kts 273°
2026-04-23 14:49 14.69176 -17.25220 9440 ft 302 kts 272°
2026-04-23 14:49 14.69228 -17.27386 10189 ft 306 kts 271°
2026-04-23 14:50 14.69260 -17.29588 10728 ft 317 kts 270°
2026-04-23 14:50 14.69281 -17.31923 11062 ft 335 kts 270°
2026-04-23 14:50 14.69299 -17.34416 11388 ft 353 kts 270°
2026-04-23 14:50 14.69314 -17.37014 11721 ft 370 kts 270°
2026-04-23 14:51 14.69328 -17.39679 12314 ft 379 kts 270°
2026-04-23 14:51 14.69343 -17.42389 13105 ft 382 kts 269°
2026-04-23 14:51 14.69356 -17.45132 13868 ft 386 kts 269°
2026-04-23 14:51 14.69369 -17.47931 14620 ft 391 kts 269°
2026-04-23 14:52 14.69380 -17.50741 15371 ft 395 kts 269°
2026-04-23 14:52 14.69392 -17.53583 16127 ft 399 kts 268°
2026-04-23 14:52 14.69402 -17.56441 16880 ft 403 kts 268°
2026-04-23 14:52 14.69412 -17.59349 17638 ft 406 kts 268°
2026-04-23 14:53 14.69422 -17.62257 18378 ft 410 kts 268°
2026-04-23 14:53 14.69431 -17.65196 19103 ft 413 kts 267°
2026-04-23 14:53 14.69441 -17.68159 19814 ft 416 kts 267°
2026-04-23 14:53 14.69450 -17.71148 20517 ft 418 kts 266°
2026-04-23 14:54 14.69458 -17.74142 21196 ft 420 kts 266°
2026-04-23 14:54 14.69466 -17.77160 21805 ft 424 kts 266°
2026-04-23 14:54 14.69473 -17.80216 22401 ft 428 kts 266°
2026-04-23 14:54 14.69480 -17.83278 23035 ft 429 kts 266°
2026-04-23 14:55 14.69488 -17.86372 23738 ft 429 kts 266°
2026-04-23 14:55 14.69494 -17.89430 24377 ft 430 kts 266°
2026-04-23 14:55 14.69500 -17.92498 24960 ft 431 kts 266°
2026-04-23 14:55 14.69505 -17.95578 25526 ft 432 kts 266°
2026-04-23 14:56 14.69510 -17.98699 26076 ft 434 kts 266°
2026-04-23 14:56 14.69514 -18.01790 26602 ft 435 kts 266°
2026-04-23 14:56 14.69518 -18.04913 27113 ft 436 kts 266°
2026-04-23 14:56 14.69522 -18.08065 27609 ft 437 kts 266°
2026-04-23 14:57 14.69525 -18.11171 28198 ft 435 kts 266°
2026-04-23 14:57 14.69529 -18.14259 28901 ft 430 kts 266°
2026-04-23 14:57 14.69533 -18.17345 29585 ft 425 kts 266°
2026-04-23 14:57 14.69535 -18.20329 30188 ft 420 kts 267°
2026-04-23 14:58 14.69536 -18.23355 30751 ft 417 kts 267°
2026-04-23 14:58 14.69537 -18.26321 31269 ft 414 kts 267°
2026-04-23 14:58 14.69537 -18.29271 31761 ft 411 kts 268°
2026-04-23 14:58 14.69537 -18.32181 32228 ft 408 kts 268°
2026-04-23 14:59 14.69537 -18.35106 32680 ft 405 kts 268°
2026-04-23 14:59 14.69536 -18.37997 33109 ft 403 kts 268°
2026-04-23 14:59 14.69536 -18.40873 33513 ft 401 kts 268°
2026-04-23 14:59 14.69535 -18.43744 33903 ft 398 kts 269°
2026-04-23 15:00 14.69534 -18.46573 34270 ft 396 kts 269°
2026-04-23 15:00 14.69534 -18.49410 34599 ft 395 kts 269°
2026-04-23 15:00 14.69534 -18.52244 34893 ft 395 kts 269°
2026-04-23 15:00 14.69533 -18.55072 35176 ft 394 kts 269°
2026-04-23 15:01 14.69532 -18.57859 35447 ft 393 kts 269°
2026-04-23 15:01 14.69530 -18.60711 35712 ft 393 kts 269°
2026-04-23 15:01 14.69527 -18.63489 35959 ft 392 kts 269°
2026-04-23 15:01 14.69524 -18.66327 36199 ft 392 kts 268°
2026-04-23 15:02 14.69522 -18.68182 36348 ft 392 kts 268°
2026-04-23 15:02 14.69517 -18.71924 36594 ft 393 kts 268°
2026-04-23 15:02 14.69513 -18.74762 36760 ft 395 kts 268°
2026-04-23 15:02 14.69509 -18.77587 36925 ft 396 kts 268°
2026-04-23 15:03 14.69504 -18.80422 37090 ft 397 kts 268°
2026-04-23 15:03 14.69499 -18.83288 37251 ft 398 kts 268°
2026-04-23 15:03 14.69493 -18.86131 37405 ft 398 kts 268°
2026-04-23 15:03 14.69488 -18.88973 37554 ft 399 kts 268°
2026-04-23 15:04 14.69481 -18.91837 37699 ft 400 kts 268°
2026-04-23 15:04 14.69475 -18.94695 37840 ft 401 kts 268°
2026-04-23 15:04 14.69467 -18.97590 37975 ft 402 kts 268°
2026-04-23 15:04 14.69459 -19.00464 37993 ft 404 kts 269°
2026-04-23 15:05 14.69441 -19.06251 38000 ft 405 kts 269°
2026-04-23 15:05 14.69422 -19.12073 38001 ft 406 kts 269°
2026-04-23 15:06 14.69403 -19.17905 38001 ft 407 kts 270°
2026-04-23 15:06 14.69384 -19.23721 38001 ft 407 kts 270°
2026-04-23 15:07 14.69365 -19.29563 38001 ft 407 kts 270°
2026-04-23 15:07 14.69343 -19.35404 38001 ft 407 kts 270°
2026-04-23 15:08 14.69319 -19.41222 38001 ft 407 kts 270°
2026-04-23 15:09 14.69279 -19.49983 38001 ft 408 kts 270°
2026-04-23 15:09 14.69251 -19.55811 38001 ft 408 kts 270°
2026-04-23 15:10 14.69226 -19.60677 38001 ft 408 kts 270°
2026-04-23 15:10 14.69190 -19.67488 38001 ft 408 kts 270°
2026-04-23 15:11 14.69158 -19.73354 38001 ft 408 kts 270°
2026-04-23 15:11 14.69124 -19.79186 38001 ft 408 kts 270°
2026-04-23 15:12 14.69088 -19.85034 38001 ft 408 kts 270°
2026-04-23 15:12 14.69051 -19.90858 38001 ft 408 kts 270°
2026-04-23 15:13 14.69013 -19.96697 38001 ft 408 kts 270°
2026-04-23 15:13 14.68973 -20.02525 38001 ft 408 kts 270°
2026-04-23 15:14 14.68932 -20.08356 38001 ft 408 kts 270°
2026-04-23 15:14 14.68889 -20.14200 38001 ft 408 kts 270°
2026-04-23 15:15 14.68870 -20.20046 38002 ft 408 kts 271°
2026-04-23 15:15 14.69230 -20.25853 38007 ft 408 kts 274°
2026-04-23 15:16 14.69715 -20.31704 38015 ft 408 kts 274°
2026-04-23 15:16 14.70199 -20.37520 38025 ft 408 kts 274°
2026-04-23 15:17 14.70679 -20.43313 38037 ft 408 kts 274°
2026-04-23 15:17 14.71162 -20.49150 38045 ft 408 kts 274°
2026-04-23 15:18 14.71644 -20.54988 38050 ft 408 kts 274°
2026-04-23 15:18 14.72121 -20.60782 38052 ft 408 kts 274°
2026-04-23 15:19 14.72598 -20.66606 38056 ft 408 kts 274°
2026-04-23 15:19 14.73073 -20.72431 38054 ft 408 kts 274°
2026-04-23 15:20 14.73468 -20.77291 38054 ft 408 kts 274°
2026-04-23 15:20 14.74018 -20.84058 38054 ft 408 kts 274°
2026-04-23 15:21 14.74490 -20.89891 38054 ft 408 kts 274°
2026-04-23 15:21 14.74960 -20.95716 38054 ft 407 kts 274°
2026-04-23 15:22 14.75423 -21.01480 38054 ft 406 kts 274°
2026-04-23 15:22 14.75889 -21.07283 38054 ft 405 kts 274°
2026-04-23 15:23 14.76352 -21.13076 38054 ft 404 kts 275°
2026-04-23 15:23 14.76813 -21.18856 38053 ft 404 kts 275°
2026-04-23 15:24 14.77272 -21.24608 38054 ft 404 kts 275°
2026-04-23 15:24 14.77731 -21.30396 38054 ft 404 kts 275°
2026-04-23 15:25 14.78190 -21.36194 38054 ft 404 kts 275°
2026-04-23 15:25 14.78569 -21.41005 38054 ft 404 kts 275°
2026-04-23 15:26 14.79098 -21.47747 38054 ft 404 kts 274°
2026-04-23 15:26 14.79551 -21.53529 38054 ft 404 kts 274°
2026-04-23 15:27 14.80000 -21.59291 38054 ft 404 kts 274°
2026-04-23 15:27 14.80423 -21.64722 38054 ft 404 kts 274°
2026-04-23 15:28 14.80857 -21.70352 38054 ft 404 kts 274°
2026-04-23 15:28 14.81081 -21.73249 37841 ft 405 kts 274°
2026-04-23 15:28 14.81301 -21.76104 37581 ft 401 kts 274°
2026-04-23 15:28 14.81522 -21.78967 37263 ft 398 kts 274°
2026-04-23 15:29 14.81739 -21.81789 36872 ft 396 kts 274°
2026-04-23 15:29 14.81957 -21.84621 36325 ft 396 kts 274°
2026-04-23 15:29 14.82173 -21.87429 35712 ft 397 kts 274°
2026-04-23 15:29 14.82392 -21.90277 35087 ft 398 kts 274°
2026-04-23 15:30 14.82610 -21.93118 34459 ft 399 kts 274°
2026-04-23 15:30 14.82829 -21.95984 33815 ft 400 kts 274°
2026-04-23 15:30 14.83043 -21.98840 33132 ft 402 kts 275°
2026-04-23 15:30 14.83253 -22.01720 32366 ft 406 kts 275°
2026-04-23 15:31 14.83353 -22.04597 31556 ft 411 kts 272°
2026-04-23 15:31 14.83300 -22.07560 30672 ft 417 kts 270°
2026-04-23 15:31 14.83084 -22.10574 29732 ft 425 kts 267°
2026-04-23 15:31 14.82701 -22.13593 28753 ft 434 kts 264°
2026-04-23 15:32 14.82203 -22.16684 27740 ft 441 kts 264°
2026-04-23 15:32 14.81687 -22.19801 26803 ft 446 kts 264°
2026-04-23 15:32 14.81161 -22.22947 26089 ft 445 kts 264°
2026-04-23 15:32 14.80633 -22.26102 25344 ft 445 kts 264°
2026-04-23 15:33 14.80111 -22.29215 24614 ft 445 kts 264°
2026-04-23 15:33 14.79585 -22.32360 23878 ft 445 kts 264°
2026-04-23 15:33 14.79060 -22.35500 23149 ft 445 kts 264°
2026-04-23 15:33 14.78533 -22.38645 22426 ft 445 kts 264°
2026-04-23 15:34 14.78011 -22.41761 21712 ft 444 kts 263°
2026-04-23 15:34 14.77478 -22.44934 20990 ft 444 kts 263°
2026-04-23 15:34 14.76960 -22.48020 20291 ft 443 kts 263°
2026-04-23 15:34 14.76433 -22.51152 19609 ft 441 kts 263°
2026-04-23 15:35 14.75906 -22.54281 18976 ft 438 kts 262°
2026-04-23 15:35 14.75393 -22.57320 18376 ft 435 kts 262°
2026-04-23 15:35 14.74871 -22.60408 17776 ft 432 kts 262°
2026-04-23 15:35 14.74359 -22.63439 17194 ft 428 kts 262°
2026-04-23 15:36 14.73850 -22.66458 16615 ft 424 kts 261°
2026-04-23 15:36 14.73352 -22.69410 16056 ft 421 kts 261°
2026-04-23 15:36 14.72848 -22.72401 15491 ft 417 kts 261°
2026-04-23 15:36 14.72358 -22.75295 14949 ft 413 kts 261°
2026-04-23 15:37 14.71865 -22.78199 14405 ft 409 kts 261°
2026-04-23 15:37 14.71386 -22.81099 13863 ft 405 kts 262°
2026-04-23 15:37 14.71151 -22.82991 13511 ft 403 kts 264°
2026-04-23 15:37 14.70953 -22.86810 12800 ft 398 kts 270°
2026-04-23 15:38 14.70964 -22.89638 12271 ft 394 kts 271°
2026-04-23 15:38 14.70998 -22.92472 11741 ft 391 kts 271°
2026-04-23 15:38 14.71031 -22.95247 11218 ft 388 kts 271°
2026-04-23 15:38 14.71055 -22.97498 10792 ft 385 kts 271°
2026-04-23 15:39 14.71082 -23.00242 10553 ft 372 kts 271°
2026-04-23 15:39 14.71106 -23.02867 10413 ft 358 kts 271°
2026-04-23 15:39 14.71128 -23.05384 10275 ft 345 kts 271°
2026-04-23 15:39 14.71149 -23.07797 10158 ft 332 kts 271°
2026-04-23 15:40 14.71168 -23.10148 10060 ft 319 kts 271°
2026-04-23 15:40 14.71187 -23.12402 9729 ft 316 kts 271°
2026-04-23 15:40 14.71206 -23.14675 9367 ft 314 kts 271°
2026-04-23 15:40 14.71224 -23.16909 9023 ft 311 kts 271°
2026-04-23 15:41 14.71242 -23.19134 8684 ft 308 kts 271°
2026-04-23 15:41 14.71260 -23.21323 8353 ft 306 kts 271°
2026-04-23 15:41 14.71277 -23.23514 8020 ft 303 kts 271°
2026-04-23 15:41 14.71293 -23.25695 7678 ft 302 kts 272°
2026-04-23 15:42 14.71309 -23.27850 7362 ft 299 kts 272°
2026-04-23 15:42 14.71325 -23.29981 7039 ft 297 kts 272°
2026-04-23 15:42 14.71341 -23.32107 6718 ft 296 kts 272°
2026-04-23 15:42 14.71356 -23.34201 6397 ft 294 kts 272°
2026-04-23 15:43 14.71372 -23.36314 6076 ft 292 kts 272°
2026-04-23 15:43 14.71387 -23.38400 5761 ft 291 kts 272°
2026-04-23 15:43 14.71402 -23.40473 5418 ft 290 kts 272°
2026-04-23 15:43 14.71417 -23.42547 5087 ft 289 kts 272°
2026-04-23 15:44 14.71431 -23.44586 4861 ft 283 kts 272°
2026-04-23 15:44 14.71537 -23.46564 4825 ft 267 kts 282°
2026-04-23 15:44 14.72024 -23.48393 4577 ft 262 kts 294°
2026-04-23 15:44 14.72707 -23.50128 4296 ft 259 kts 296°
2026-04-23 15:45 14.73415 -23.51827 4026 ft 258 kts 296°
2026-04-23 15:45 14.74111 -23.53518 3753 ft 257 kts 296°
2026-04-23 15:45 14.75000 -23.55100 3495 ft 245 kts 322°
2026-04-23 15:45 14.76377 -23.55788 3404 ft 211 kts
2026-04-23 15:46 14.77757 -23.55467 3384 ft 201 kts 27°
2026-04-23 15:46 14.78989 -23.54867 3300 ft 190 kts 28°
2026-04-23 15:46 14.80142 -23.54315 3151 ft 179 kts 27°
2026-04-23 15:46 14.81245 -23.53813 3011 ft 167 kts 26°
2026-04-23 15:47 14.82282 -23.53359 2783 ft 163 kts 26°
2026-04-23 15:47 14.83308 -23.52918 2530 ft 158 kts 26°
2026-04-23 15:47 14.84089 -23.52592 2501 ft 144 kts 25°
2026-04-23 15:47 14.84877 -23.52268 2535 ft 139 kts 25°
2026-04-23 15:48 14.85768 -23.51903 2290 ft 138 kts 26°
2026-04-23 15:48 14.86650 -23.51555 1907 ft 135 kts 24°
2026-04-23 15:48 14.86763 -23.51514 1873 ft 134 kts 24°
2026-04-23 15:48 14.87518 -23.51240 1607 ft 132 kts 24°
2026-04-23 15:49 14.88357 -23.50897 1389 ft 131 kts 26°
2026-04-23 15:49 14.89197 -23.50506 1239 ft 131 kts 28°
2026-04-23 15:49 14.90031 -23.50146 1104 ft 131 kts 22°
2026-04-23 15:49 14.90880 -23.49817 929 ft 131 kts 25°
2026-04-23 15:50 14.91724 -23.49460 703 ft 129 kts 26°
2026-04-23 15:50 14.92564 -23.49117 561 ft 131 kts 25°
2026-04-23 15:50 14.93387 -23.48774 371 ft 129 kts 25°
2026-04-23 15:50 14.94195 -23.48435 372 ft 129 kts 25°
2026-04-23 15:51 14.95093 -23.48068 870 ft 140 kts 25°
2026-04-23 15:51 14.95956 -23.47702 1431 ft 133 kts 26°
2026-04-23 15:51 14.96823 -23.47322 1776 ft 143 kts 26°
2026-04-23 15:51 14.97786 -23.46904 2075 ft 158 kts 25°
2026-04-23 15:52 14.98827 -23.46421 2369 ft 171 kts 33°
2026-04-23 15:52 14.99489 -23.45389 2630 ft 191 kts 80°
2026-04-23 15:52 14.99124 -23.43917 2796 ft 232 kts 123°
2026-04-23 15:52 14.97805 -23.42927 2866 ft 245 kts 162°
2026-04-23 15:53 14.96120 -23.42968 2941 ft 252 kts 199°
2026-04-23 15:53 14.94637 -23.43923 2790 ft 250 kts 218°
2026-04-23 15:53 14.93319 -23.45077 2540 ft 253 kts 219°
2026-04-23 15:53 14.91922 -23.46221 2518 ft 255 kts 216°
2026-04-23 15:54 14.90505 -23.47303 2512 ft 255 kts 215°
2026-04-23 15:54 14.89073 -23.48383 2512 ft 255 kts 215°
2026-04-23 15:54 14.87643 -23.49468 2512 ft 255 kts 215°
2026-04-23 15:54 14.86223 -23.50553 2512 ft 255 kts 215°
2026-04-23 15:55 14.84840 -23.51616 2502 ft 242 kts 215°
2026-04-23 15:55 14.83544 -23.52644 2497 ft 229 kts 223°
2026-04-23 15:55 14.82754 -23.54041 2496 ft 228 kts 264°
2026-04-23 15:55 14.82996 -23.55590 2519 ft 209 kts 306°
2026-04-23 15:56 14.84021 -23.56407 2481 ft 174 kts 355°
2026-04-23 15:56 14.85023 -23.56131 2481 ft 140 kts 45°
2026-04-23 15:56 14.85551 -23.55309 2465 ft 140 kts 64°
2026-04-23 15:56 14.85947 -23.54391 2130 ft 142 kts 66°
2026-04-23 15:57 14.86285 -23.53438 1814 ft 138 kts 71°
2026-04-23 15:57 14.86532 -23.52492 1565 ft 136 kts 72°
2026-04-23 15:57 14.86961 -23.51648 1604 ft 132 kts 48°
2026-04-23 15:57 14.87734 -23.51141 1668 ft 134 kts 26°
2026-04-23 15:58 14.88604 -23.50789 1313 ft 136 kts 25°
2026-04-23 15:58 14.89434 -23.50439 1132 ft 129 kts 27°
2026-04-23 15:58 14.90263 -23.50063 1021 ft 130 kts 26°
2026-04-23 15:58 14.91107 -23.49719 885 ft 132 kts 25°
2026-04-23 15:59 14.91943 -23.49379 683 ft 129 kts 26°
2026-04-23 15:59 14.92776 -23.49021 507 ft 126 kts 26°
2026-04-23 15:59 14.93561 -23.48699 340 ft 117 kts 26°
2026-04-23 15:59 14.94116 -23.48466 333 ft 47 kts 19°
2026-04-23 16:00 14.94399 -23.48348 333 ft 50 kts 22°
2026-04-23 16:00 14.94676 -23.48238 333 ft 19 kts 20°
2026-04-23 16:00 14.94788 -23.48187 333 ft 19 kts 25°
2026-04-23 16:00 14.94919 -23.48128 333 ft 18 kts 43°
2026-04-23 16:01 14.94968 -23.48089 333 ft 3 kts 332°
2026-04-23 16:01 14.94955 -23.48114 333 ft 8 kts 219°
2026-04-23 16:01 14.94863 -23.48158 333 ft 18 kts 202°
2026-04-23 16:01 14.94730 -23.48214 333 ft 22 kts 202°
2026-04-23 16:02 14.94608 -23.48263 333 ft 14 kts 201°
2026-04-23 16:02 14.94554 -23.48338 333 ft 0 kts 287°
2026-04-23 16:02 14.94576 -23.48420 333 ft 16 kts 266°
2026-04-23 16:03 14.94487 -23.48491 333 ft 18 kts 201°
2026-04-23 16:03 14.94463 -23.48523 333 ft 3 kts 295°
2026-04-23 16:03 14.94476 -23.48557 333 ft 6 kts 291°
2026-04-23 16:03 14.94477 -23.48561 333 ft 0 kts 291°